Tracking 30970 objects as of 3-Jul-2025
HD Live streaming from Space Station
objects crossing your sky now

TITAN 3C TRANSTAGE R/B

Track TITAN 3C TRANSTAGE R/B now!
10-day predictions


NORAD ID: 1863
Int'l Code: 1965-108A
Perigee: 343.9 km
Apogee: 20,664.0 km
Inclination: 26.7 °
Period: 363.6 minutes
Semi major axis: 16874 km
RCS: 10.3335 m2 (large)
Launch date: December 21, 1965
Source: United States (US)
Launch site: AIR FORCE EASTERN TEST RANGE (AFETR)

Note: This is a ROCKET BODY
Your satellite tracking list
Your tracking list is empty




NASA's NSSDC Master Catalog

Two Line Element Set (TLE):
1  1863U 65108A   25183.75190817  .00003071  00000-0  14724-2 0  9996
2  1863  26.7142 117.3044 6020778  46.6601 349.8397  3.96040545354590
Source of the keplerian elements: AFSPC